Regional Weather Roundup
Issued by NWS

Home | Current Version | Previous Version | Graphics & Text | Print | Product List | Glossary Off
Versions: 1 2 3 4 5 6 7 8 9 10 11 12 13 14 15 16 17 18 19 20 21 22 23 24 25 26 27 28 29 30 31 32 33 34 35 36 37 38 39 40 41 42 43 44 45 46 47 48 49 50

928
ASUS43 KTOP 100959
RWRKS

WEATHER ROUNDUP FOR KANSAS
NATIONAL WEATHER SERVICE GOODLAND KS
400 AM CST WED FEB 10 2016

NOTE:  "FAIR" INDICATES FEW OR NO CLOUDS BELOW 12,000 FEET WITH NO
SIGNIFICANT WEATHER AND/OR OBSTRUCTIONS TO VISIBILITY.

KSZ001>006-013>018-027>032-041>047-101100-
NORTHWEST KANSAS

CITY           SKY/WX    TMP DP  RH WIND       PRES   REMARKS
GOODLAND       CLEAR     38  25  59 W16       30.10F WCI  29
HAYS           CLEAR     27  16  63 SW7       30.09F
HILL CITY      CLEAR     32  25  75 W6        30.07F
RUSSELL        CLEAR     28  23  81 SW15      30.07F WCI  16
$$

KSZ061>065-074>080-084>089-101100-
SOUTHWEST KANSAS

CITY           SKY/WX    TMP DP  RH WIND       PRES   REMARKS
DODGE CITY     CLEAR     32  24  72 W14       30.13F WCI  22
ELKHART          N/A     37  21  52 W8          N/A
GARDEN CITY    CLEAR     30  24  78 W9        30.13F
GREAT BEND     CLEAR     27  16  63 SW8       30.12F
LIBERAL        CLEAR     36  25  64 W13       30.17F WCI  27
$$

KSZ066>073-081>083-090>101-101100-
SOUTHEAST KANSAS

CITY           SKY/WX    TMP DP  RH WIND       PRES   REMARKS
CHANUTE        CLOUDY    22  15  75 S5        30.24F
COFFEYVILLE    PTCLDY    19  13  77 S3        30.27F
HUTCHINSON     CLEAR     26  18  71 S9        30.17F
MEDICINE LODGE   N/A     27  19  72 S5        30.18F
NEWTON         CLOUDY    27  12  54 S9        30.19F
PARSONS        MOCLDY    18  13  80 CALM      30.27S
WICHITA INTL   PTCLDY    25  14  63 S7        30.21F
WICHITA JABRA  CLOUDY    24  13  62 S8        30.21F
WINFIELD       CLOUDY    24  14  65 SE5       30.25F
$$

KSZ007>012-019>026-033>040-048>060-102>105-101100-
NORTHEAST KANSAS

CITY           SKY/WX    TMP DP  RH WIND       PRES   REMARKS
CONCORDIA      CLOUDY    27  15  61 S9        30.10F
EMPORIA        CLOUDY    24  17  74 SW5       30.21F
LAWRENCE       CLOUDY    21  15  78 CALM      30.21F
MANHATTAN      CLOUDY    24  16  71 SW6       30.18F
OLATHE IND     CLOUDY    21  14  74 S3        30.21F
OLATHE EXE     CLOUDY    22  12  65 SW3       30.20F
SALINA         CLOUDY    27  16  63 SE7       30.16F
TOPEKA BILLARD CLOUDY    24  12  60 CALM      30.20F
TOPEKA FORBES  CLOUDY    24  15  68 SW7       30.18F
$$




USA.gov is the U.S. government's official web portal to all federal, state and local government web resources and services.